Retour au catalogue

ATLAS AGENA B DEB

LostPO
NORAD 3121·DEBRIS·🇺🇸 United States

Lancé Jul 19, 1963 depuis Vandenberg Space Force Base

Loading…

Prochains Passages (prochaines 24 heures)

TLE

PériméSource: Space-Track

Époque: Sep 22, 2025, 18:38 UTC

1  3121U 63030F   25265.77665337 -.00000023  00000-0 -12932-1 0  9998
2  3121  88.4265 223.3936 0032008 335.5634  24.3698  8.57967986183832

Suivez ATLAS AGENA B DEB en temps réel avec AllMySat

Download on the App Store